Lid_Strength_Index
3 3 3 4 3 4 4 4 5 5 5 5 5 4 3 1 1 0 0 1 1 1
4 4 4 5 4 5 5 6 6 6 6 6 5 5 4 2 1 1 2 2 1 3
5 6 6 6 6 6 6 7 7 6 6 6 6 5 4 3 3 3 4 4 4 5
6 6 6 6 7 7 7 8 7 7 7 7 7 6 5 5 5 5 5 5 5 6
7 7 7 7 8 8 8 8 8 8 8 7 8 7 7 7 7 7 6 6 6 7
7 7 7 8 8 8 8 8 8 8 8 9 8 8 8 8 7 7 7 8 8 8
7 7 8 8 8 9 9 9 9 9 9 9 9 9 9 8 8 9 9 8 8 8
7 7 7 8 9 9 10 9 10 10 10 10 10 10 9 9 10 10 10 10 10 9
7 8 8 8 9 10 10 10 10 10 10 10 10 10 10 10 10 10 11 11 11 11
7 8 8 9 10 10 10 10 10 10 11 11 10 9 10 10 10 11 11 12 11 11
8 9 9 10 11 11 11 11 11 10 10 10 11 10 11 12 12 13 13 12 12 11
8 9 10 11 11 11 11 12 12 12 11 11 11 11 12 13 13 13 13 12 12 12
8 9 10 11 11 12 12 12 12 12 12 12 11 12 12 13 13 14 14 14 12 12
9 10 11 11 12 12 13 13 12 13 13 12 12 12 12 13 14 14 14 14 14 13